TimeCDT,TemperatureF,Dew PointF,Humidity,Sea Level PressureIn,VisibilityMPH,Wind Direction,Wind SpeedMPH,Gust SpeedMPH,PrecipitationIn,Events,Conditions,WindDirDegrees,DateUTC
12:15 AM,72.9,59.0,62,30.01,10.0,South,8.1,-,N/A,,Overcast,170,2013-09-29 05:15:00
12:35 AM,72.7,59.2,62,30.01,10.0,South,8.1,-,N/A,,Overcast,180,2013-09-29 05:35:00
12:55 AM,72.5,59.2,63,30.01,10.0,South,10.4,-,N/A,,Overcast,190,2013-09-29 05:55:00
1:15 AM,72.1,59.4,64,30.01,10.0,SSW,9.2,-,N/A,,Overcast,200,2013-09-29 06:15:00
1:35 AM,71.6,59.4,65,30.02,10.0,SW,9.2,-,N/A,,Overcast,220,2013-09-29 06:35:00
1:55 AM,70.9,59.9,68,30.01,10.0,SSW,4.6,-,N/A,,Overcast,210,2013-09-29 06:55:00
2:15 AM,70.7,59.9,69,30.01,10.0,SSW,4.6,-,N/A,,Overcast,200,2013-09-29 07:15:00
2:35 AM,70.0,60.4,72,30.01,10.0,SSW,6.9,-,N/A,Rain,Light Rain,210,2013-09-29 07:35:00
2:55 AM,67.6,62.2,83,30.01,7.0,SW,8.1,17.3,0.01,Rain,Heavy Rain,230,2013-09-29 07:55:00
3:15 AM,66.2,63.9,92,30.01,7.0,SSW,8.1,-,0.01,Rain,Rain,210,2013-09-29 08:15:00
3:35 AM,66.2,65.8,99,30.00,5.0,SSW,6.9,-,0.01,Rain,Heavy Rain,210,2013-09-29 08:35:00
3:55 AM,65.8,65.8,100,30.00,5.0,South,5.8,-,0.03,Rain,Rain,190,2013-09-29 08:55:00
4:15 AM,65.7,65.7,100,30.00,5.0,SSW,4.6,-,0.01,Rain,Rain,200,2013-09-29 09:15:00
4:35 AM,65.8,65.8,100,30.00,5.0,SSW,5.8,-,0.01,Rain,Rain,210,2013-09-29 09:35:00
4:55 AM,66.2,66.2,100,30.00,5.0,WSW,5.8,-,0.01,Rain,Light Rain,240,2013-09-29 09:55:00
5:15 AM,66.2,66.2,100,30.00,5.0,Calm,Calm,-,N/A,Rain,Rain,0,2013-09-29 10:15:00
5:35 AM,64.2,64.2,100,30.01,7.0,NNW,10.4,-,N/A,Rain,Light Rain,330,2013-09-29 10:35:00
5:55 AM,63.1,63.1,100,30.02,10.0,North,10.4,-,N/A,Rain,Rain,350,2013-09-29 10:55:00
6:15 AM,62.8,62.8,100,30.03,10.0,North,6.9,-,N/A,,Overcast,350,2013-09-29 11:15:00
6:35 AM,62.6,62.6,100,30.03,10.0,North,5.8,-,N/A,,Overcast,350,2013-09-29 11:35:00
6:55 AM,62.1,62.1,100,30.04,7.0,NNW,9.2,-,N/A,,Drizzle,340,2013-09-29 11:55:00
7:15 AM,61.3,61.3,100,30.04,10.0,North,6.9,-,N/A,,Drizzle,360,2013-09-29 12:15:00
7:35 AM,61.0,61.0,100,30.03,3.0,North,9.2,-,N/A,Rain,Light Rain,360,2013-09-29 12:35:00
7:55 AM,60.8,60.8,100,30.03,7.0,North,8.1,-,N/A,,Overcast,10,2013-09-29 12:55:00
8:15 AM,61.0,61.0,100,30.05,5.0,North,6.9,-,N/A,,Overcast,350,2013-09-29 13:15:00
8:35 AM,61.2,61.2,100,30.03,7.0,North,6.9,-,N/A,,Overcast,350,2013-09-29 13:35:00
8:55 AM,61.7,61.2,98,30.03,10.0,North,9.2,-,N/A,,Overcast,360,2013-09-29 13:55:00
9:15 AM,61.7,60.3,95,30.05,10.0,North,6.9,-,N/A,,Overcast,360,2013-09-29 14:15:00
9:35 AM,62.4,60.6,94,30.05,10.0,North,6.9,-,N/A,,Overcast,360,2013-09-29 14:35:00
9:55 AM,62.6,60.1,91,30.05,10.0,North,8.1,-,N/A,,Overcast,10,2013-09-29 14:55:00
10:15 AM,62.6,59.5,90,30.06,10.0,North,4.6,-,N/A,,Overcast,10,2013-09-29 15:15:00
10:35 AM,63.0,59.7,89,30.06,10.0,North,8.1,-,N/A,,Overcast,360,2013-09-29 15:35:00
10:55 AM,64.0,59.7,86,30.06,10.0,NNE,6.9,-,N/A,,Overcast,20,2013-09-29 15:55:00
11:15 AM,64.4,60.1,86,30.06,10.0,NNE,4.6,-,N/A,,Overcast,20,2013-09-29 16:15:00
11:35 AM,64.8,60.1,85,30.06,10.0,NNE,6.9,-,N/A,,Overcast,20,2013-09-29 16:35:00
11:55 AM,64.9,60.4,85,30.06,10.0,Calm,Calm,-,N/A,,Overcast,0,2013-09-29 16:55:00
12:15 PM,66.6,61.0,82,30.05,10.0,Calm,Calm,-,N/A,,Overcast,0,2013-09-29 17:15:00
12:35 PM,68.2,61.3,79,30.05,10.0,North,5.8,-,N/A,,Overcast,360,2013-09-29 17:35:00
12:55 PM,68.0,60.6,77,30.03,10.0,NW,4.6,-,N/A,,Overcast,320,2013-09-29 17:55:00
1:15 PM,69.1,60.1,73,30.03,10.0,Calm,Calm,-,N/A,,Mostly Cloudy,0,2013-09-29 18:15:00
1:35 PM,70.2,60.3,71,30.02,10.0,Calm,Calm,-,N/A,,Mostly Cloudy,0,2013-09-29 18:35:00
1:55 PM,71.6,58.6,64,30.01,10.0,Calm,Calm,-,N/A,,Scattered Clouds,0,2013-09-29 18:55:00
2:15 PM,73.8,59.7,61,30.00,10.0,North,5.8,-,N/A,,Mostly Cloudy,360,2013-09-29 19:15:00
2:35 PM,73.9,58.5,58,29.99,10.0,NW,3.5,-,N/A,,Scattered Clouds,320,2013-09-29 19:35:00
2:55 PM,74.7,58.1,56,29.99,10.0,North,8.1,-,N/A,,Clear,10,2013-09-29 19:55:00
3:15 PM,74.8,55.9,52,29.98,10.0,Calm,Calm,-,N/A,,Clear,0,2013-09-29 20:15:00
3:35 PM,75.4,55.6,50,29.98,10.0,Calm,Calm,-,N/A,,Clear,0,2013-09-29 20:35:00
3:55 PM,75.7,55.9,50,29.98,10.0,Calm,Calm,-,N/A,,Clear,0,2013-09-29 20:55:00
4:15 PM,76.3,54.1,46,29.97,10.0,Calm,Calm,-,N/A,,Clear,0,2013-09-29 21:15:00
4:35 PM,75.7,53.2,45,29.97,10.0,NW,3.5,-,N/A,,Clear,320,2013-09-29 21:35:00
4:55 PM,76.1,53.4,45,29.97,10.0,NNE,3.5,-,N/A,,Clear,30,2013-09-29 21:55:00
5:15 PM,75.7,52.2,44,29.98,10.0,WNW,3.5,-,N/A,,Clear,290,2013-09-29 22:15:00
5:35 PM,75.6,53.2,46,29.98,10.0,Calm,Calm,-,N/A,,Clear,0,2013-09-29 22:35:00
5:55 PM,74.8,53.4,47,29.98,10.0,NNW,3.5,-,N/A,,Clear,330,2013-09-29 22:55:00
6:15 PM,73.2,55.6,54,29.98,10.0,Calm,Calm,-,N/A,,Clear,0,2013-09-29 23:15:00
6:35 PM,70.3,60.6,71,29.98,10.0,SSE,3.5,-,N/A,,Clear,160,2013-09-29 23:35:00
6:55 PM,68.7,61.2,77,29.99,10.0,Calm,Calm,-,N/A,,Clear,0,2013-09-29 23:55:00
7:15 PM,66.7,61.3,83,29.99,10.0,SSE,3.5,-,N/A,,Clear,160,2013-09-30 00:15:00
7:35 PM,66.0,61.7,86,29.99,10.0,SE,3.5,-,N/A,,Clear,130,2013-09-30 00:35:00
7:55 PM,65.7,62.2,89,30.00,10.0,Calm,Calm,-,N/A,,Clear,0,2013-09-30 00:55:00
8:15 PM,64.8,61.9,90,30.00,10.0,SSE,3.5,-,N/A,,Clear,160,2013-09-30 01:15:00
8:35 PM,64.8,62.2,92,30.00,10.0,SSE,3.5,-,N/A,,Clear,160,2013-09-30 01:35:00
8:55 PM,63.9,62.6,96,30.00,10.0,SSE,4.6,-,N/A,,Clear,160,2013-09-30 01:55:00
9:15 PM,63.3,62.6,97,30.00,10.0,Calm,Calm,-,N/A,,Clear,0,2013-09-30 02:15:00
9:35 PM,62.6,62.6,100,30.00,10.0,Calm,Calm,-,N/A,,Clear,0,2013-09-30 02:35:00
9:55 PM,61.7,61.7,100,30.00,2.0,Calm,Calm,-,N/A,,Clear,0,2013-09-30 02:55:00
10:15 PM,60.4,60.4,100,30.00,0.2,Calm,Calm,-,N/A,Fog,Fog,0,2013-09-30 03:15:00
10:35 PM,59.2,59.2,100,30.00,0.5,Calm,Calm,-,N/A,Fog,Fog,0,2013-09-30 03:35:00
10:55 PM,58.5,58.5,100,30.00,0.2,Calm,Calm,-,N/A,Fog,Fog,0,2013-09-30 03:55:00
11:15 PM,57.2,57.2,100,30.00,0.2,Calm,Calm,-,N/A,Fog,Fog,0,2013-09-30 04:15:00
11:35 PM,58.3,58.3,100,30.00,0.5,Calm,Calm,-,N/A,Fog,Fog,0,2013-09-30 04:35:00
11:55 PM,61.3,61.3,100,30.00,2.5,SW,3.5,-,N/A,,Overcast,220,2013-09-30 04:55:00